Regional Weather Roundup
Issued by NWS

Home | Current Version | Previous Version | Graphics & Text | Print | Product List | Glossary On
Versions: 1 2 3 4 5 6 7 8 9 10 11 12 13 14 15 16 17 18 19 20 21 22 23 24 25 26 27 28 29 30 31 32 33 34 35 36 37 38 39 40 41 42 43 44 45 46 47 48 49 50
000
ASUS45 KTFX 270404
RWRMT
MONTANA HOURLY WEATHER ROUNDUP
NATIONAL WEATHER SERVICE GREAT FALLS MT
904 PM MST WED NOV 26 2014

NOTE: "FAIR" INDICATES FEW OR NO CLOUDS BELOW 12000 FEET WITH NO
SIGNIFICANT WEATHER AND/OR OBSTRUCTIONS TO VISIBILITY.

* THESE STATIONS ARE NOT UNDER NWS QUALITY CONTROL. THEY DO NOT
   REPORT WEATHER SUCH AS PRECIPITATION OR FOG.

MTZ001>007-043-270500-
WEST OF THE DIVIDE
CITY           SKY/WX    TMP DP  RH WIND       PRES   REMARKS
KALISPELL      LGT SNOW  32  32 100 CALM      30.06F VSB 2
MISSOULA       FOG       30  30 100 E3        30.11F
BUTTE          CLOUDY    41  27  58 N5        30.11F
MULLAN PASS    CLOUDY    34  34 100 SW10G24   30.05F WCI  26
* ESSEX        N/A       32  31  96 N/A        N/A
* LINCOLN      N/A       36  34  92 S4         N/A
* LOOKOUT PASS N/A       39  37  93 NE4        N/A
* POLSON       N/A       36  36 100 SE2        N/A
* RONAN APT    CLOUDY    34  30  85 N/A        N/A
* SEELEY LAKE  N/A       32  31  96 S2         N/A
* THOMP F APT  CLOUDY    35  33  92 NE5        N/A   WCI  31
* YAAK HILL    N/A       32  30  92 N/A        N/A
$$

MTZ008-052>055-270500-
SOUTHWEST MONTANA
CITY           SKY/WX    TMP DP  RH WIND       PRES   REMARKS
BOZEMAN        CLOUDY    34  28  79 SE6       30.09F WCI  29
DILLON         MOCLDY    37  28  70 SW10      30.14S WCI  30
* W YELLOWSTON CLOUDY    35  32  89 SW3G13     N/A
* ENNIS APT    CLOUDY    39  30  70 S15        N/A   WCI  31
* THREE FORKS  CLOUDY    25   5  42 N/A        N/A
* BOULDER HILL N/A       37  28  70 SW10       N/A   WCI  30
* MONIDA PASS  N/A       31  31 100 SE17       N/A   WCI  20
* RAYNOLDS PAS N/A       34  20  57 S16        N/A   WCI  24
* WHITEHALL    N/A       45  28  51 W12G25     N/A
* WISE RIVER   N/A       38  28  67 E2         N/A
$$

MTZ009>010-012-014-046-048-049-054-270500-
EAST SLOPES AND CENTRAL MONTANA
CITY           SKY/WX    TMP DP  RH WIND       PRES   REMARKS
CUT BANK       FOG       28  27  96 SE15      29.99F VSB M1/4 WCI  16
GREAT FALLS    FOG       27  27 100 CALM      30.02F VSB M1/4
HELENA         FOG       28  27  96 CALM      30.09F
MALMSTROM AFB  FOG       27  27 100 CALM      30.05F VSB 1/4
* DEARBORN     N/A       32  31  96 SW2        N/A
* EAST GLACIER N/A       36  33  89 SW9G15     N/A   WCI  29
* MONARCH      N/A       40  25  55 SW16G24    N/A   WCI  32
* PENDROY      N/A       27  27 100 S8         N/A   WCI  19
* SAINT MARY   N/A       38  35  89 S8G18      N/A   WCI  32
* SWEET GRASS  N/A       25  25 100 S20G26     N/A   WCI  11
$$

MTZ011-013-016-021-035-040-045-047-050-051-270500-
NORTH CENTRAL MONTANA
CITY           SKY/WX    TMP DP  RH WIND       PRES   REMARKS
HAVRE          CLOUDY    28  27  96 NE10      30.10F WCI  19
LEWISTOWN      CLOUDY    28  23  81 E8        30.04F WCI  20
* N BAR RANCH  CLOUDY    27  25  92 S7        30.07F WCI  19
* CHESTER      N/A       27  25  92 SE10G17    N/A   WCI  18
* DENTON       N/A       25  24  96 NE3        N/A
* GEYSER       N/A       26  25  96 N/A        N/A
* JUDITH GAP   N/A       25  25 100 S12        N/A   WCI  14
* LOMA         N/A       29  27  92 E17        N/A   WCI  17
$$

MTZ017>020-022>027-061-062-270500-
NORTHEAST MONTANA
CITY           SKY/WX    TMP DP  RH WIND       PRES   REMARKS
GLASGOW        CLOUDY    16  10  77 E21       30.24F WCI  -1
GLENDIVE       MOCLDY    14  10  84 NE9       30.30F WCI   2
JORDAN         CLOUDY    25  23  92 SE12      30.21F WCI  14
SIDNEY         PTCLDY    10   5  80 CALM      30.37S
WOLF POINT     MOCLDY    14   9  80 E7        30.32F WCI   4
* BEAVER HILL  N/A       16  12  84 E6         N/A   WCI   7
* CIRCLE       N/A       20  17  88 NE3        N/A
* LINDSAY DVD  N/A       16  14  92 E8         N/A   WCI   5
* NAVAJO       N/A        9   4  80 S7         N/A   WCI  -2
* SACO         N/A       19  15  84 E12        N/A   WCI   6
$$

MTZ028>042-056>058-270500-
SOUTHCENTRAL AND SOUTHEAST MONTANA
CITY           SKY/WX    TMP DP  RH WIND       PRES   REMARKS
BAKER          CLOUDY    21  18  88 SE7       30.27F WCI  12
BILLINGS       FOG       28  28 100 SE3       30.13F VSB 2
LIVINGSTON     CLOUDY    43  30  60 W18G26    30.06F
MILES CITY     LGT SNOW  27  23  85 E3        30.25S
* LAUREL APT   CLOUDY    27  21  78 N/A        N/A
* ALZADA       N/A       23  22  96 E9         N/A   WCI  13
* HYSHAM       N/A       28  25  89 E6         N/A   WCI  21
* REED POINT   N/A       28  27  96 E2         N/A
* ROSCOE HILL  N/A       40  21  47 W6         N/A   WCI  36
$$

REGIONAL REPORTS...DAKOTAS
CITY           SKY/WX    TMP DP  RH WIND       PRES   REMARKS
WILLISTON      CLOUDY     9   3  76 CALM      30.38S
DICKINSON      PTCLDY    10   7  88 SE8       30.31S WCI  -2
BEACH          CLOUDY    12  12 100 E8        30.29S
CROSBY         CLOUDY    -8 -11  86 S6        30.38F WCI -21
BISMARCK       CLOUDY    -6  -9  87 E3        30.47R
GRAND FORKS    PTCLDY   -13 -17  82 NW3       30.55S
FARGO          PTCLDY    -6 -11  78 CALM      30.54R
BUFFALO SD     MOCLDY    21  18  88 SE6       30.22F WCI  13
RAPID CITY     CLOUDY    28  25  89 E6        30.28R WCI  21
$$

REGIONAL REPORTS...WYOMING/IDAHO/WASHINGTON
CITY           SKY/WX    TMP DP  RH WIND       PRES   REMARKS
GILLETTE       PTCLDY    25  21  85 SE5       30.16F WCI  19
SHERIDAN       CLOUDY    27  25  92 W6        30.13F WCI  20
CODY           CLOUDY    23  23 100 N8        30.11F VSB 1/2  WCI  14
YELLOWSTONE LA CLOUDY    34  28  79 VRB5      30.28S WCI  29
SALMON         CLOUDY    30  28  92 CALM      30.18S VSB M1/4
MULLAN PASS    CLOUDY    34  34 100 SW10G24   30.05S WCI  26
SAND POINT     FOG       34  34 100 CALM      30.05F VSB 2 1/2
SPOKANE        CLOUDY    43  41  93 SE9       30.00F
$$

REGIONAL REPORTS...SASKATCHEWAN
CITY           SKY/WX    TMP DP  RH WIND       PRES   REMARKS
REGINA         LGT SNOW  -2  -8  75 SE13      30.34F WCI -21

$$



USA.gov is the U.S. government's official web portal to all federal, state and local government web resources and services.